Tracking 30986 objects as of 9-Jul-2025
HD Live streaming from Space Station
objects crossing your sky now

CZ-2D R/B

Track CZ-2D R/B now!
10-day predictions


NORAD ID: 36597
Int'l Code: 2010-027B
Perigee: 534.4 km
Apogee: 608.7 km
Inclination: 98.0 °
Period: 95.9 minutes
Semi major axis: 6942 km
RCS: 8.7925 m2 (large)
Launch date: June 15, 2010
Source: People's Republic of China (PRC)
Launch site: Jiuquan Satellite Launch Center, China (JSC)

Note: This is a ROCKET BODY
Your satellite tracking list
Your tracking list is empty




NASA's NSSDC Master Catalog

Two Line Element Set (TLE):
1 36597U 10027B   25189.74702340  .00000874  00000-0  72129-4 0  9996
2 36597  98.0200 203.6322 0053495 352.5075   7.5343 15.00796242819334
Source of the keplerian elements: AFSPC